Wind_Speed
32 32 33 33 33 33 34 34 35 33 33 33 34 35 36 38 38 38 38 38 38 39 38 38 38 38 39 40 41 41 41 42 42 42 42 43 44 45 45 45 46 46 46 46
32 33 34 35 34 34 35 35 36 35 34 34 35 37 37 38 39 39 38 38 38 38 39 39 39 39 39 39 40 41 41 42 42 41 42 43 43 43 44 44 45 45 46 45
33 33 35 35 33 34 34 35 36 36 36 36 37 37 37 38 39 39 39 39 38 39 39 39 39 39 39 39 39 40 41 42 42 42 42 43 44 44 43 43 43 44 45 45
35 34 36 34 34 34 35 34 35 37 37 38 38 37 37 38 38 39 40 40 40 39 39 39 39 39 39 40 40 41 41 41 42 42 43 44 44 44 43 43 43 43 44 45
36 36 36 34 33 34 35 35 35 36 37 39 39 38 38 38 38 39 40 40 41 41 40 40 40 39 40 40 41 42 42 42 42 43 43 44 44 44 44 44 44 44 45 45
36 37 37 34 34 35 37 37 36 37 37 39 40 40 39 38 38 39 41 41 42 42 41 41 40 40 40 40 41 42 43 43 43 43 43 43 44 45 45 45 45 45 46 46
35 36 36 35 35 36 37 37 37 38 38 38 39 40 39 39 38 38 39 40 41 41 41 40 40 40 40 40 41 41 41 42 43 43 44 44 44 45 45 46 47 47 47 48
35 35 35 34 35 36 36 37 37 38 38 38 39 39 40 40 39 38 38 38 39 40 40 40 40 40 40 40 40 41 41 42 42 43 44 45 45 45 46 47 47 47 48 48
35 34 34 34 35 36 36 37 37 38 38 38 39 39 39 40 40 39 39 39 39 39 39 39 40 40 40 40 40 41 41 42 42 43 43 44 44 45 46 47 47 48 48 48
35 34 35 35 36 36 36 37 37 38 38 38 38 39 39 39 39 39 40 40 40 39 39 39 39 39 39 40 40 40 41 41 41 42 42 42 43 44 45 46 46 47 47 47
35 35 36 36 36 37 37 37 37 38 38 38 38 39 39 39 39 39 39 40 40 40 40 40 39 39 39 40 39 39 39 40 40 41 41 42 42 43 44 44 44 44 45 46
35 35 36 36 36 37 37 36 37 38 39 39 39 39 39 39 39 39 39 40 40 40 40 40 41 41 41 41 41 40 40 39 39 40 40 41 41 42 42 42 43 44 44 44
35 35 36 36 36 36 37 37 37 38 39 39 39 39 38 38 38 39 39 40 40 41 41 41 41 41 41 41 41 40 40 39 39 39 40 40 41 41 41 42 42 43 43 43
35 36 36 36 36 36 36 37 37 37 38 38 38 38 38 38 38 38 38 39 40 40 41 41 41 41 41 40 40 40 39 39 39 39 39 39 40 40 41 41 41 42 42 42
36 36 35 35 35 35 36 37 36 36 36 36 37 37 37 38 38 38 38 39 39 39 39 39 39 39 39 39 38 38 38 38 39 39 39 39 39 39 39 39 39 40 40 40
37 37 37 37 36 37 37 36 36 36 36 36 36 36 36 37 37 38 38 38 38 38 37 37 37 37 37 37 37 37 37 37 37 37 38 38 38 38 38 38 37 37 38 38
37 37 37 38 38 38 37 37 37 36 36 35 36 36 36 36 36 36 36 36 36 36 36 36 36 36 36 35 35 35 35 35 36 36 36 36 36 36 36 35 35 35 36 36
37 37 38 38 38 38 37 37 36 35 35 35 35 35 35 35 35 35 34 34 33 34 34 34 34 34 34 34 34 33 33 34 34 34 33 33 33 33 33 33 33 34 34 35
37 37 37 37 37 36 36 35 35 35 35 35 34 34 34 34 34 33 33 33 32 33 33 33 33 32 32 31 31 31 32 32 32 32 32 33 33 32 32 32 32 32 33 34
35 36 36 36 35 35 35 35 35 35 35 35 35 34 34 33 33 33 33 32 32 33 33 33 33 32 32 31 31 30 30 30 31 31 31 31 31 31 31 32 32 32 33 33
33 34 34 34 34 34 35 34 34 34 33 33 33 32 32 32 32 32 32 32 32 32 32 32 32 32 32 31 30 30 30 31 30 30 30 30 29 30 30 31 31 32 32 32
32 33 33 33 33 33 33 33 33 32 32 31 31 30 30 30 30 30 31 31 31 31 32 32 32 31 31 30 30 30 30 30 30 29 29 29 29 29 29 30 30 30 30 31
31 31 31 32 32 32 31 31 30 30 30 29 29 29 29 29 29 29 29 30 30 30 31 30 30 30 30 30 29 29 29 29 28 27 27 27 27 28 28 28 28 28 28 28
29 29 29 30 30 30 29 29 29 29 28 28 28 28 28 28 29 29 29 29 29 29 29 29 29 29 29 29 29 29 29 28 28 27 26 26 26 27 27 26 26 26 26 26
29 29 29 28 28 28 27 27 27 27 27 27 27 27 27 28 28 28 28 28 28 28 29 29 29 29 28 28 28 28 28 28 27 27 27 27 26 26 25 25 25 24 25 25
28 28 29 28 27 27 26 26 25 26 26 26 26 27 27 28 28 28 28 28 28 28 29 29 28 28 27 26 26 26 26 26 26 26 26 26 25 24 24 23 23 23 23 23
28 28 28 27 26 26 25 25 25 25 25 25 26 26 27 27 27 27 28 28 28 28 28 28 28 27 26 26 25 25 25 25 25 24 24 23 23 23 22 22 21 21 21 20
Wind_Direction
278 276 275 275 274 272 272 273 273 273 274 276 278 279 279 279 281 282 283 283 281 280 280 279 278 278 277 276 273 270 267 267 267 267 267 267 267 267 266 265 265 265 265 265
278 277 276 276 275 275 274 273 273 273 275 278 279 279 280 280 280 281 282 282 282 281 280 279 279 279 278 277 274 271 268 268 267 268 268 268 268 267 267 267 266 265 265 266
278 277 277 277 278 278 277 275 274 274 276 277 278 279 280 280 280 280 280 282 283 282 282 281 281 280 279 277 274 271 270 269 268 267 267 267 268 268 267 267 267 267 267 267
281 279 278 280 279 279 278 277 276 276 276 277 279 279 279 279 280 280 281 282 283 282 282 282 281 280 278 277 274 273 273 271 270 268 267 267 268 268 267 267 267 267 267 267
283 282 282 281 281 281 280 279 278 279 278 278 279 279 279 279 279 281 282 282 283 283 283 282 281 280 279 277 275 273 273 273 271 270 268 268 267 268 268 268 267 267 267 268
284 282 283 285 283 281 281 281 281 280 280 279 279 279 279 279 280 281 282 282 283 283 283 283 281 281 280 279 277 275 274 273 272 270 269 269 268 268 268 268 268 268 268 269
285 284 284 286 286 283 282 284 283 282 281 281 280 279 280 280 282 283 284 284 283 283 283 283 282 281 280 279 278 276 275 274 273 271 270 269 270 270 270 269 269 269 269 270
285 285 286 287 285 284 284 283 284 284 283 282 281 280 280 281 283 285 286 285 284 283 283 283 282 282 281 280 279 277 276 274 273 272 271 270 270 269 270 270 270 270 271 271
285 286 286 286 286 285 284 284 285 285 285 284 282 281 281 282 283 284 284 285 286 285 284 283 283 282 281 281 280 278 276 275 274 273 272 271 270 270 270 270 270 271 271 271
284 285 285 285 285 285 285 285 285 285 285 284 283 283 283 283 283 284 284 285 286 286 285 284 283 282 282 282 281 279 277 276 274 273 272 272 272 271 271 271 271 271 272 272
286 287 286 285 286 286 286 286 285 285 285 285 284 284 283 283 283 283 284 284 285 285 285 285 284 283 283 282 282 280 278 277 275 274 273 273 273 272 272 272 272 272 272 271
288 288 287 286 286 286 285 286 286 285 286 286 286 286 285 285 285 284 285 285 286 286 286 285 285 284 283 282 281 280 278 277 275 275 274 274 273 273 273 272 271 272 272 272
288 288 288 287 287 286 285 285 286 286 287 287 287 287 287 286 286 286 287 286 287 287 287 286 286 285 284 283 282 280 279 277 275 275 275 274 274 274 273 272 272 272 272 272
288 289 289 288 287 286 286 286 287 287 287 288 288 288 287 286 287 287 288 288 288 289 289 288 287 286 285 285 283 281 279 277 276 276 275 275 275 274 273 273 272 271 271 272
288 289 289 289 288 287 288 288 288 288 288 288 288 288 288 287 287 288 289 289 289 289 290 289 288 288 286 285 283 282 280 279 277 276 276 276 275 275 274 273 272 271 271 271
287 287 287 288 288 288 288 289 289 290 289 289 288 289 289 289 289 289 289 289 290 289 290 290 290 289 288 286 284 283 281 279 278 277 276 276 275 275 274 273 272 271 271 271
288 288 288 287 288 288 288 288 289 290 289 289 289 289 289 289 289 290 290 290 291 290 290 290 291 290 289 288 286 284 282 280 279 278 278 277 276 276 275 273 272 271 271 271
288 288 288 289 289 289 288 289 289 290 290 290 290 289 289 289 289 290 291 291 292 292 292 292 292 292 291 289 287 285 283 282 280 279 279 278 278 277 276 275 273 272 271 272
288 289 289 290 290 291 291 291 290 290 290 290 290 290 289 289 289 289 290 291 292 292 293 293 294 294 294 292 290 287 285 284 282 281 280 279 278 277 276 275 275 274 274 274
289 289 290 290 290 291 292 292 292 291 291 290 290 289 289 289 289 289 290 290 292 292 292 293 293 294 293 292 291 289 288 287 285 283 281 280 278 277 276 275 275 275 276 276
289 289 290 290 290 291 292 291 291 290 290 290 290 290 290 290 290 290 290 290 291 292 293 293 293 293 292 291 290 289 289 288 286 284 282 280 279 279 278 278 277 277 277 277
289 289 289 290 291 292 292 291 291 290 290 290 290 290 291 291 291 291 291 291 292 293 293 293 293 293 293 293 291 291 291 289 287 285 282 280 280 280 280 279 279 278 278 278
289 289 289 290 291 291 291 292 291 291 290 291 291 291 291 291 292 292 292 293 294 295 295 294 294 293 294 294 293 293 292 291 288 286 284 283 283 283 282 282 281 280 279 279
290 290 291 292 292 291 291 291 291 291 291 291 292 292 293 293 293 293 294 295 296 297 296 296 296 295 294 293 293 292 291 289 288 286 285 285 285 285 284 283 282 281 281 281
291 291 291 292 292 292 291 291 290 290 291 291 292 293 294 294 295 295 295 297 298 298 299 299 298 297 296 294 292 292 290 289 288 287 286 286 285 285 284 283 282 281 281 282
294 293 294 293 292 291 291 292 292 292 292 292 293 293 294 295 296 296 297 298 299 300 300 300 299 298 296 295 294 293 291 290 289 287 286 285 284 284 283 283 282 281 282 282
296 296 295 294 293 293 292 293 293 294 294 294 294 294 295 295 295 296 297 298 299 300 301 301 300 299 297 295 294 294 293 292 291 289 287 286 284 283 283 283 282 282 282 283
Height
5583 5582 5581 5581 5581 5581 5580 5579 5579 5580 5579 5579 5577 5575 5574 5573 5572 5570 5569 5568 5566 5565 5563 5562 5561 5559 5558 5557 5556 5556 5556 5557 5557 5557 5557 5558 5558 5558 5559 5559 5560 5561 5562 5562
5574 5573 5572 5571 5572 5571 5570 5570 5569 5569 5570 5569 5566 5564 5563 5562 5561 5560 5558 5557 5555 5554 5552 5551 5549 5548 5546 5545 5544 5544 5544 5545 5545 5545 5545 5545 5546 5546 5546 5547 5547 5548 5549 5550
5565 5564 5562 5563 5564 5562 5561 5560 5560 5559 5560 5557 5556 5554 5553 5551 5550 5548 5547 5546 5544 5542 5541 5539 5537 5536 5535 5534 5533 5533 5533 5532 5533 5533 5533 5533 5533 5533 5534 5534 5534 5535 5536 5537
5555 5555 5553 5557 5555 5553 5551 5551 5550 5549 5548 5546 5545 5543 5541 5540 5538 5537 5536 5535 5533 5531 5529 5527 5526 5524 5523 5522 5521 5521 5521 5520 5520 5520 5520 5520 5520 5521 5521 5521 5522 5522 5523 5524
5546 5544 5543 5546 5545 5543 5541 5541 5540 5538 5537 5535 5533 5532 5530 5528 5527 5525 5524 5523 5521 5519 5517 5516 5514 5513 5511 5510 5509 5509 5508 5508 5508 5507 5507 5508 5507 5507 5507 5508 5509 5509 5510 5510
5537 5534 5534 5538 5536 5532 5531 5531 5530 5527 5526 5524 5522 5521 5520 5517 5516 5514 5512 5511 5509 5507 5505 5504 5502 5501 5499 5498 5497 5496 5496 5495 5494 5494 5494 5494 5494 5494 5494 5495 5495 5495 5496 5496
5528 5525 5525 5527 5525 5522 5522 5522 5519 5516 5514 5513 5511 5509 5508 5506 5504 5502 5501 5499 5497 5495 5493 5491 5490 5488 5487 5486 5484 5483 5482 5482 5481 5481 5481 5481 5481 5481 5481 5481 5481 5482 5482 5482
5519 5517 5519 5517 5514 5513 5511 5509 5507 5505 5503 5501 5500 5497 5496 5494 5492 5491 5489 5487 5485 5483 5481 5479 5478 5476 5475 5473 5472 5470 5469 5468 5468 5467 5467 5467 5467 5467 5467 5467 5467 5467 5467 5467
5512 5512 5509 5506 5504 5502 5500 5498 5496 5494 5492 5490 5488 5486 5485 5483 5481 5480 5478 5475 5473 5471 5470 5468 5466 5464 5462 5461 5459 5457 5456 5455 5454 5453 5453 5452 5452 5452 5452 5452 5452 5453 5453 5453
5502 5501 5499 5496 5494 5492 5490 5488 5485 5483 5481 5479 5477 5475 5473 5472 5470 5468 5466 5464 5462 5460 5458 5456 5453 5451 5450 5448 5446 5444 5443 5441 5440 5440 5439 5439 5438 5438 5438 5438 5438 5438 5438 5438
5492 5491 5489 5487 5484 5482 5479 5477 5475 5473 5470 5468 5466 5464 5462 5460 5458 5457 5455 5452 5450 5448 5446 5444 5441 5439 5437 5435 5433 5431 5430 5429 5427 5426 5426 5425 5425 5424 5424 5424 5423 5424 5423 5423
5483 5481 5479 5477 5474 5472 5469 5467 5465 5462 5460 5457 5455 5453 5451 5449 5447 5445 5443 5441 5438 5436 5434 5431 5429 5427 5425 5422 5420 5418 5417 5416 5415 5414 5413 5412 5412 5411 5410 5410 5410 5409 5409 5409
5473 5470 5468 5466 5464 5461 5459 5456 5454 5451 5449 5446 5444 5442 5439 5437 5435 5433 5431 5429 5426 5424 5421 5419 5416 5414 5411 5409 5407 5405 5404 5402 5401 5401 5400 5399 5399 5398 5397 5397 5396 5396 5395 5395
5462 5460 5457 5455 5453 5451 5448 5446 5443 5441 5438 5435 5433 5431 5428 5426 5424 5422 5419 5416 5414 5411 5408 5406 5403 5400 5398 5395 5393 5392 5390 5389 5388 5387 5387 5386 5385 5385 5384 5384 5383 5383 5382 5382
5452 5449 5447 5445 5443 5440 5437 5435 5432 5430 5427 5425 5422 5420 5417 5415 5413 5410 5407 5404 5401 5399 5396 5393 5390 5388 5385 5383 5381 5379 5377 5376 5375 5374 5374 5373 5372 5372 5371 5370 5370 5369 5369 5369
5441 5438 5436 5434 5432 5429 5427 5424 5421 5419 5416 5414 5412 5409 5407 5404 5401 5399 5396 5393 5390 5387 5384 5381 5378 5375 5373 5370 5368 5367 5365 5364 5363 5362 5361 5360 5360 5359 5358 5358 5357 5357 5356 5356
5430 5428 5425 5423 5421 5418 5415 5413 5410 5408 5405 5403 5401 5398 5396 5393 5390 5388 5385 5382 5379 5376 5373 5370 5367 5364 5361 5359 5357 5355 5353 5352 5351 5350 5349 5348 5347 5346 5346 5345 5345 5344 5344 5344
5419 5416 5414 5412 5409 5407 5404 5402 5399 5397 5394 5392 5390 5388 5385 5383 5380 5377 5374 5372 5369 5366 5363 5360 5357 5354 5351 5348 5346 5344 5342 5341 5340 5339 5338 5337 5336 5335 5334 5334 5333 5333 5332 5332
5407 5405 5403 5400 5398 5395 5393 5391 5388 5386 5384 5381 5379 5377 5375 5372 5369 5367 5364 5362 5359 5356 5353 5350 5347 5344 5341 5338 5336 5334 5332 5331 5329 5328 5327 5326 5325 5324 5323 5322 5322 5321 5321 5320
5396 5394 5391 5389 5387 5385 5382 5380 5377 5375 5373 5371 5369 5366 5364 5362 5359 5357 5354 5351 5349 5346 5343 5340 5337 5334 5332 5329 5327 5325 5323 5321 5319 5318 5316 5315 5314 5313 5312 5312 5311 5311 5310 5309
5386 5384 5381 5379 5377 5375 5372 5370 5367 5365 5363 5361 5358 5356 5354 5351 5349 5347 5344 5342 5339 5336 5333 5330 5327 5325 5322 5320 5317 5315 5313 5311 5309 5308 5306 5305 5304 5303 5302 5301 5301 5300 5299 5298
5376 5374 5372 5369 5367 5365 5362 5360 5357 5355 5353 5351 5349 5346 5344 5342 5339 5337 5334 5332 5329 5326 5323 5321 5318 5315 5312 5310 5308 5306 5303 5301 5300 5298 5297 5295 5294 5293 5292 5291 5290 5289 5288 5287
5367 5365 5362 5360 5358 5355 5353 5350 5348 5346 5344 5342 5339 5337 5335 5332 5330 5328 5325 5323 5320 5317 5314 5311 5308 5305 5303 5301 5298 5296 5294 5292 5290 5289 5287 5286 5285 5284 5283 5281 5280 5279 5278 5277
5358 5356 5354 5351 5349 5346 5344 5342 5339 5337 5335 5333 5330 5328 5326 5324 5321 5319 5316 5313 5310 5307 5305 5302 5299 5296 5294 5291 5289 5287 5285 5283 5282 5280 5279 5277 5276 5275 5273 5272 5271 5270 5269 5267
5350 5348 5346 5343 5341 5338 5335 5333 5331 5329 5327 5324 5322 5320 5317 5315 5313 5310 5307 5305 5302 5299 5296 5293 5290 5287 5285 5282 5280 5278 5276 5274 5273 5271 5270 5268 5267 5266 5264 5263 5262 5261 5260 5259
5343 5340 5338 5335 5333 5330 5328 5325 5323 5321 5319 5316 5314 5311 5309 5306 5304 5301 5299 5296 5293 5290 5287 5284 5281 5278 5276 5274 5272 5269 5267 5266 5264 5262 5261 5259 5258 5257 5255 5254 5253 5252 5251 5251
5335 5332 5330 5327 5325 5323 5320 5318 5316 5313 5311 5308 5306 5303 5301 5298 5296 5293 5290 5287 5285 5282 5279 5276 5273 5270 5268 5266 5263 5261 5259 5257 5256 5254 5252 5251 5249 5248 5247 5246 5245 5244 5244 5243